DAL916 KDTW-KLAS

Flight info

Callsign DAL916
Flight time 3h 54m
Altitude 34000
Route KAYLN3 SMUUV OBK IOW J60 DVV/N0449F360 J60 HVE GGAPP CHOWW4
Aircraft A321/M-SDE3FGHIRWY/LB1

Departure

Time 2026-05-07 20:02
Airport Detroit Metropolitan Wayne County Airport (KDTW)

Arrival

Time 2026-05-07 23:56
Airport Harry Reid International Airport (KLAS)
Time Latitude Longitude Altitude Speed Heading
2026-05-07 19:36 42.20247 -83.36250 647 ft 0 kts 47°
2026-05-07 19:49 42.20235 -83.36268 646 ft 4 kts 47°
2026-05-07 19:49 42.20221 -83.36289 648 ft 4 kts 47°
2026-05-07 19:49 42.20203 -83.36316 646 ft 4 kts 52°
2026-05-07 19:50 42.20190 -83.36346 646 ft 4 kts 88°
2026-05-07 19:50 42.20193 -83.36376 646 ft 4 kts 101°
2026-05-07 19:50 42.20194 -83.36385 646 ft 0 kts 101°
2026-05-07 19:52 42.20191 -83.36359 646 ft 9 kts 101°
2026-05-07 19:52 42.20171 -83.36221 646 ft 17 kts 101°
2026-05-07 19:53 42.20161 -83.36072 646 ft 15 kts 89°
2026-05-07 19:53 42.20162 -83.35933 646 ft 17 kts 89°
2026-05-07 19:53 42.20165 -83.35771 646 ft 17 kts 88°
2026-05-07 19:53 42.20170 -83.35609 646 ft 20 kts 87°
2026-05-07 19:54 42.20175 -83.35396 647 ft 24 kts 90°
2026-05-07 19:54 42.20183 -83.35215 649 ft 14 kts 63°
2026-05-07 19:54 42.20261 -83.35139 648 ft 16 kts 28°
2026-05-07 19:54 42.20389 -83.35047 647 ft 25 kts 28°
2026-05-07 19:55 42.20508 -83.35018 649 ft 16 kts 349°
2026-05-07 19:55 42.20606 -83.34969 647 ft 14 kts 30°
2026-05-07 19:55 42.20689 -83.34906 650 ft 14 kts 29°
2026-05-07 19:55 42.20806 -83.34819 647 ft 24 kts 28°
2026-05-07 19:56 42.20862 -83.34716 647 ft 12 kts 57°
2026-05-07 19:56 42.20922 -83.34655 648 ft 10 kts 29°
2026-05-07 19:56 42.20987 -83.34608 648 ft 13 kts 28°
2026-05-07 19:56 42.21107 -83.34520 647 ft 24 kts 28°
2026-05-07 19:57 42.21247 -83.34417 647 ft 23 kts 28°
2026-05-07 19:57 42.21380 -83.34316 649 ft 21 kts 29°
2026-05-07 19:57 42.21504 -83.34222 648 ft 20 kts 29°
2026-05-07 19:57 42.21627 -83.34166 649 ft 18 kts 358°
2026-05-07 19:58 42.21756 -83.34170 645 ft 18 kts 359°
2026-05-07 19:58 42.21873 -83.34148 646 ft 16 kts 25°
2026-05-07 19:58 42.21968 -83.34079 646 ft 15 kts 29°
2026-05-07 19:58 42.22054 -83.34015 646 ft 13 kts 29°
2026-05-07 19:59 42.22156 -83.33939 647 ft 23 kts 28°
2026-05-07 19:59 42.22255 -83.33867 647 ft 25 kts 28°
2026-05-07 19:59 42.22395 -83.33767 648 ft 22 kts 27°
2026-05-07 19:59 42.22525 -83.33675 648 ft 21 kts 28°
2026-05-07 20:00 42.22647 -83.33586 649 ft 19 kts 28°
2026-05-07 20:00 42.22753 -83.33515 648 ft 12 kts
2026-05-07 20:00 42.22769 -83.33520 646 ft 0 kts 341°
2026-05-07 20:00 42.22770 -83.33520 646 ft 1 kts 340°
2026-05-07 20:01 42.22787 -83.33541 646 ft 9 kts 307°
2026-05-07 20:01 42.22792 -83.33631 645 ft 10 kts 240°
2026-05-07 20:01 42.22764 -83.33662 645 ft 0 kts 211°
2026-05-07 20:01 42.22668 -83.33736 647 ft 48 kts 210°
2026-05-07 20:02 42.22169 -83.34101 646 ft 113 kts 208°
2026-05-07 20:02 42.21335 -83.34740 658 ft 160 kts 211°
2026-05-07 20:02 42.20374 -83.35485 1311 ft 153 kts 217°
2026-05-07 20:02 42.19498 -83.36301 1945 ft 151 kts 232°
2026-05-07 20:03 42.18836 -83.37373 2417 ft 152 kts 239°
2026-05-07 20:03 42.18168 -83.38602 2572 ft 172 kts 240°
2026-05-07 20:03 42.17418 -83.39993 2751 ft 195 kts 238°
2026-05-07 20:03 42.16571 -83.41552 2905 ft 218 kts 238°
2026-05-07 20:04 42.15618 -83.43287 3141 ft 241 kts 237°
2026-05-07 20:04 42.14594 -83.45129 3768 ft 249 kts 237°
2026-05-07 20:04 42.13544 -83.47001 4571 ft 252 kts 237°
2026-05-07 20:04 42.12479 -83.48893 5375 ft 254 kts 237°
2026-05-07 20:05 42.11409 -83.50786 6128 ft 256 kts 237°
2026-05-07 20:05 42.10323 -83.52702 6789 ft 259 kts 237°
2026-05-07 20:05 42.09229 -83.54636 6950 ft 259 kts 237°
2026-05-07 20:05 42.08140 -83.56561 7003 ft 258 kts 237°
2026-05-07 20:06 42.07062 -83.58482 7012 ft 256 kts 240°
2026-05-07 20:06 42.06355 -83.60633 7009 ft 250 kts 261°
2026-05-07 20:06 42.06293 -83.62945 7049 ft 249 kts 281°
2026-05-07 20:06 42.06885 -83.65138 7754 ft 251 kts 300°
2026-05-07 20:07 42.07881 -83.67061 8585 ft 251 kts 304°
2026-05-07 20:07 42.08910 -83.68972 8941 ft 251 kts 304°
2026-05-07 20:07 42.09935 -83.70872 9015 ft 250 kts 304°
2026-05-07 20:07 42.10954 -83.72761 9018 ft 249 kts 304°
2026-05-07 20:08 42.11957 -83.74626 9010 ft 249 kts 304°
2026-05-07 20:08 42.12973 -83.76515 9023 ft 250 kts 304°
2026-05-07 20:08 42.13994 -83.78410 9020 ft 250 kts 304°
2026-05-07 20:08 42.15011 -83.80296 9015 ft 249 kts 304°
2026-05-07 20:09 42.16035 -83.82197 9165 ft 254 kts 304°
2026-05-07 20:09 42.17066 -83.84116 9990 ft 252 kts 303°
2026-05-07 20:09 42.18108 -83.86066 10452 ft 266 kts 303°
2026-05-07 20:10 42.20446 -83.90444 10709 ft 309 kts 303°
2026-05-07 20:10 42.21742 -83.92873 10829 ft 328 kts 303°
2026-05-07 20:10 42.23102 -83.95414 11193 ft 338 kts 304°
2026-05-07 20:10 42.24495 -83.98007 11786 ft 343 kts 304°
2026-05-07 20:11 42.25901 -84.00625 12430 ft 346 kts 304°
2026-05-07 20:11 42.27315 -84.03262 13057 ft 349 kts 304°
2026-05-07 20:11 42.28742 -84.05927 13655 ft 352 kts 304°
2026-05-07 20:11 42.30180 -84.08618 14206 ft 354 kts 304°
2026-05-07 20:12 42.31623 -84.11323 14739 ft 356 kts 303°
2026-05-07 20:12 42.33075 -84.14048 15275 ft 358 kts 303°
2026-05-07 20:12 42.34532 -84.16783 15800 ft 360 kts 303°
2026-05-07 20:12 42.35994 -84.19534 16343 ft 362 kts 303°
2026-05-07 20:13 42.37464 -84.22312 16865 ft 363 kts 303°
2026-05-07 20:13 42.38935 -84.25099 17401 ft 365 kts 302°
2026-05-07 20:13 42.40418 -84.27906 17900 ft 368 kts 302°
2026-05-07 20:13 42.41778 -84.30824 18397 ft 366 kts 295°
2026-05-07 20:14 42.42722 -84.34017 18840 ft 367 kts 285°
2026-05-07 20:14 42.43215 -84.37406 19273 ft 369 kts 276°
2026-05-07 20:14 42.43334 -84.40888 19666 ft 371 kts 273°
2026-05-07 20:14 42.43424 -84.44394 20093 ft 374 kts 273°
2026-05-07 20:15 42.43514 -84.47916 20524 ft 376 kts 273°
2026-05-07 20:15 42.43605 -84.51469 20942 ft 379 kts 272°
2026-05-07 20:15 42.43694 -84.55047 21360 ft 381 kts 272°
2026-05-07 20:15 42.43782 -84.58639 21775 ft 384 kts 272°
2026-05-07 20:16 42.43872 -84.62261 22178 ft 386 kts 272°
2026-05-07 20:16 42.43964 -84.65902 22563 ft 388 kts 272°
2026-05-07 20:16 42.44056 -84.69571 22916 ft 391 kts 273°
2026-05-07 20:16 42.44146 -84.73220 23279 ft 394 kts 272°
2026-05-07 20:17 42.44233 -84.76939 23624 ft 397 kts 272°
2026-05-07 20:17 42.44323 -84.80731 23936 ft 399 kts 272°
2026-05-07 20:17 42.44411 -84.84436 24250 ft 400 kts 272°
2026-05-07 20:17 42.44494 -84.88197 24569 ft 401 kts 272°
2026-05-07 20:18 42.44574 -84.91982 24891 ft 402 kts 272°
2026-05-07 20:18 42.44659 -84.95775 25216 ft 403 kts 272°
2026-05-07 20:18 42.44746 -84.99575 25540 ft 405 kts 272°
2026-05-07 20:18 42.44831 -85.03390 25853 ft 406 kts 272°
2026-05-07 20:19 42.44910 -85.07215 26130 ft 407 kts 272°
2026-05-07 20:19 42.44989 -85.11048 26461 ft 407 kts 272°
2026-05-07 20:19 42.45068 -85.14872 26867 ft 405 kts 272°
2026-05-07 20:19 42.45144 -85.18677 27285 ft 403 kts 272°
2026-05-07 20:20 42.45219 -85.22463 27695 ft 401 kts 272°
2026-05-07 20:20 42.45294 -85.26224 28089 ft 399 kts 272°
2026-05-07 20:20 42.45367 -85.29970 28484 ft 397 kts 272°
2026-05-07 20:20 42.45438 -85.33699 28869 ft 395 kts 272°
2026-05-07 20:21 42.45508 -85.37418 29226 ft 394 kts 272°
2026-05-07 20:21 42.45575 -85.41111 29601 ft 392 kts 272°
2026-05-07 20:21 42.45638 -85.44803 29971 ft 390 kts 272°
2026-05-07 20:21 42.45697 -85.48462 30313 ft 388 kts 272°
2026-05-07 20:22 42.45758 -85.52106 30586 ft 387 kts 272°
2026-05-07 20:22 42.45821 -85.55753 30842 ft 387 kts 272°
2026-05-07 20:22 42.45883 -85.59394 31090 ft 387 kts 272°
2026-05-07 20:22 42.45943 -85.63038 31337 ft 387 kts 272°
2026-05-07 20:23 42.46003 -85.66684 31585 ft 387 kts 272°
2026-05-07 20:23 42.46063 -85.70322 31820 ft 387 kts 272°
2026-05-07 20:23 42.46119 -85.73968 32065 ft 387 kts 272°
2026-05-07 20:23 42.46172 -85.77613 32303 ft 387 kts 271°
2026-05-07 20:24 42.46222 -85.81259 32552 ft 387 kts 272°
2026-05-07 20:24 42.46272 -85.84901 32787 ft 387 kts 271°
2026-05-07 20:24 42.46321 -85.88551 32968 ft 388 kts 271°
2026-05-07 20:25 42.46422 -85.95853 33003 ft 387 kts 271°
2026-05-07 20:25 42.46517 -86.03147 33003 ft 387 kts 271°
2026-05-07 20:26 42.46607 -86.10436 33003 ft 387 kts 271°
2026-05-07 20:26 42.46015 -86.17690 33000 ft 389 kts 263°
2026-05-07 20:27 42.45100 -86.24905 33003 ft 388 kts 263°
2026-05-07 20:27 42.44178 -86.32106 32970 ft 388 kts 263°
2026-05-07 20:28 42.43255 -86.39309 32976 ft 388 kts 263°
2026-05-07 20:28 42.42341 -86.46464 32981 ft 388 kts 263°
2026-05-07 20:29 42.41413 -86.53666 32983 ft 388 kts 263°
2026-05-07 20:29 42.40473 -86.60866 32987 ft 390 kts 263°
2026-05-07 20:30 42.39524 -86.68091 32987 ft 390 kts 263°
2026-05-07 20:30 42.38580 -86.75316 32991 ft 390 kts 263°
2026-05-07 20:31 42.37631 -86.82540 32982 ft 390 kts 263°
2026-05-07 20:31 42.36674 -86.89763 32977 ft 390 kts 263°
2026-05-07 20:32 42.35715 -86.96940 32956 ft 385 kts 263°
2026-05-07 20:32 42.34763 -87.04037 32964 ft 384 kts 263°
2026-05-07 20:33 42.33804 -87.11133 32964 ft 383 kts 263°
2026-05-07 20:33 42.32844 -87.18225 32962 ft 383 kts 263°
2026-05-07 20:34 42.31883 -87.25310 32964 ft 383 kts 263°
2026-05-07 20:34 42.30916 -87.32391 32964 ft 383 kts 263°
2026-05-07 20:35 42.29945 -87.39505 32964 ft 386 kts 263°
2026-05-07 20:35 42.28964 -87.46637 32967 ft 387 kts 263°
2026-05-07 20:36 42.27970 -87.53774 32963 ft 387 kts 263°
2026-05-07 20:36 42.26969 -87.60905 32956 ft 386 kts 263°
2026-05-07 20:37 42.25975 -87.68045 32955 ft 387 kts 263°
2026-05-07 20:37 42.24980 -87.75182 32952 ft 387 kts 263°
2026-05-07 20:38 42.23975 -87.82304 32954 ft 386 kts 263°
2026-05-07 20:38 42.22955 -87.89425 32953 ft 386 kts 263°
2026-05-07 20:39 42.21941 -87.96435 32949 ft 387 kts 262°
2026-05-07 20:39 42.20733 -88.03591 32952 ft 388 kts 261°
2026-05-07 20:40 42.19456 -88.10649 32944 ft 387 kts 261°
2026-05-07 20:40 42.18190 -88.17677 32910 ft 384 kts 261°
2026-05-07 20:41 42.16966 -88.24624 32941 ft 380 kts 261°
2026-05-07 20:41 42.15741 -88.31555 32940 ft 380 kts 261°
2026-05-07 20:42 42.14512 -88.38468 32939 ft 380 kts 261°
2026-05-07 20:42 42.13277 -88.45392 32942 ft 380 kts 261°
2026-05-07 20:43 42.12042 -88.52290 32933 ft 378 kts 261°
2026-05-07 20:43 42.10812 -88.59110 32932 ft 378 kts 261°
2026-05-07 20:44 42.09567 -88.65990 32932 ft 378 kts 261°
2026-05-07 20:44 42.08325 -88.72866 32930 ft 378 kts 261°
2026-05-07 20:45 42.07080 -88.79738 32925 ft 378 kts 261°
2026-05-07 20:45 42.05829 -88.86610 32905 ft 378 kts 261°
2026-05-07 20:46 42.04784 -88.92318 32935 ft 378 kts 261°
2026-05-07 20:46 42.03521 -88.99178 32930 ft 377 kts 261°
2026-05-07 20:47 42.02253 -89.06042 32940 ft 378 kts 261°
2026-05-07 20:47 42.00982 -89.12906 32920 ft 378 kts 261°
2026-05-07 20:48 41.99713 -89.19764 32924 ft 378 kts 261°
2026-05-07 20:48 41.98435 -89.26625 32863 ft 379 kts 261°
2026-05-07 20:49 41.97151 -89.33444 32926 ft 375 kts 261°
2026-05-07 20:49 41.95882 -89.40221 32933 ft 374 kts 261°
2026-05-07 20:50 41.94610 -89.46993 32937 ft 374 kts 261°
2026-05-07 20:50 41.93331 -89.53764 32939 ft 374 kts 261°
2026-05-07 20:51 41.92047 -89.60530 32934 ft 374 kts 261°
2026-05-07 20:51 41.90760 -89.67298 32934 ft 374 kts 261°
2026-05-07 20:52 41.89469 -89.74059 32938 ft 374 kts 261°
2026-05-07 20:52 41.88170 -89.80825 32936 ft 374 kts 261°
2026-05-07 20:53 41.86868 -89.87575 32936 ft 374 kts 261°
2026-05-07 20:53 41.85570 -89.94324 32937 ft 374 kts 261°
2026-05-07 20:54 41.84263 -90.01073 32905 ft 375 kts 261°
2026-05-07 20:54 41.82954 -90.07804 32936 ft 376 kts 261°
2026-05-07 20:55 41.81634 -90.14580 32937 ft 376 kts 261°
2026-05-07 20:55 41.80309 -90.21346 32934 ft 375 kts 261°
2026-05-07 20:56 41.78966 -90.28163 32931 ft 376 kts 261°
2026-05-07 20:56 41.77639 -90.34885 32933 ft 376 kts 261°
2026-05-07 20:57 41.76305 -90.41645 32929 ft 376 kts 261°
2026-05-07 20:57 41.74966 -90.48414 32935 ft 377 kts 261°
2026-05-07 20:58 41.73617 -90.55179 32935 ft 377 kts 261°
2026-05-07 20:58 41.72261 -90.61963 32933 ft 377 kts 261°
2026-05-07 20:59 41.70907 -90.68744 32931 ft 377 kts 261°
2026-05-07 20:59 41.69544 -90.75522 32934 ft 378 kts 261°
2026-05-07 21:00 41.68170 -90.82326 32935 ft 380 kts 261°
2026-05-07 21:00 41.66784 -90.89169 32938 ft 381 kts 261°
2026-05-07 21:01 41.65398 -90.95998 32949 ft 381 kts 260°
2026-05-07 21:01 41.64003 -91.02834 32946 ft 381 kts 260°
2026-05-07 21:02 41.62607 -91.09664 32946 ft 381 kts 260°
2026-05-07 21:02 41.61206 -91.16494 32925 ft 382 kts 260°
2026-05-07 21:03 41.59797 -91.23363 32948 ft 384 kts 260°
2026-05-07 21:03 41.58374 -91.30240 32943 ft 384 kts 260°
2026-05-07 21:04 41.56951 -91.37116 32948 ft 384 kts 260°
2026-05-07 21:04 41.55525 -91.43987 32947 ft 384 kts 260°
2026-05-07 21:05 41.54092 -91.50860 32944 ft 384 kts 259°
2026-05-07 21:05 41.52659 -91.57691 32945 ft 386 kts 259°
2026-05-07 21:06 41.51576 -91.64653 32948 ft 382 kts 267°
2026-05-07 21:06 41.50933 -91.71682 32947 ft 382 kts 267°
2026-05-07 21:07 41.50279 -91.78715 32947 ft 382 kts 266°
2026-05-07 21:07 41.49607 -91.85740 32948 ft 382 kts 266°
2026-05-07 21:08 41.48935 -91.92769 32930 ft 383 kts 266°
2026-05-07 21:08 41.48256 -91.99840 32938 ft 385 kts 266°
2026-05-07 21:09 41.47571 -92.06925 32935 ft 385 kts 266°
2026-05-07 21:09 41.46882 -92.14005 32934 ft 385 kts 266°
2026-05-07 21:10 41.46193 -92.21081 32931 ft 385 kts 266°
2026-05-07 21:10 41.45496 -92.28160 32931 ft 385 kts 266°
2026-05-07 21:11 41.44788 -92.35278 32930 ft 389 kts 266°
2026-05-07 21:11 41.43717 -92.45996 32929 ft 389 kts 266°
2026-05-07 21:12 41.42994 -92.53147 32929 ft 389 kts 266°
2026-05-07 21:12 41.42267 -92.60300 32927 ft 390 kts 266°
2026-05-07 21:13 41.41535 -92.67448 32896 ft 390 kts 266°
2026-05-07 21:13 41.40799 -92.74640 32930 ft 393 kts 266°
2026-05-07 21:14 41.40054 -92.81814 32926 ft 394 kts 265°
2026-05-07 21:14 41.39305 -92.89036 32928 ft 394 kts 266°
2026-05-07 21:15 41.38558 -92.96254 32927 ft 394 kts 265°
2026-05-07 21:15 41.37794 -93.03472 32923 ft 394 kts 265°
2026-05-07 21:16 41.37021 -93.10703 32916 ft 396 kts 265°
2026-05-07 21:16 41.36244 -93.17983 32916 ft 397 kts 265°
2026-05-07 21:17 41.35464 -93.25266 32914 ft 397 kts 265°
2026-05-07 21:17 41.34681 -93.32544 32914 ft 397 kts 265°
2026-05-07 21:18 41.33897 -93.39818 32909 ft 397 kts 265°
2026-05-07 21:18 41.33104 -93.47093 32909 ft 397 kts 265°
2026-05-07 21:19 41.32301 -93.54368 32905 ft 398 kts 265°
2026-05-07 21:19 41.31487 -93.61643 32903 ft 398 kts 265°
2026-05-07 21:20 41.30686 -93.68869 32902 ft 398 kts 265°
2026-05-07 21:20 41.29880 -93.76140 32902 ft 398 kts 265°
2026-05-07 21:21 41.29060 -93.83417 32885 ft 399 kts 265°
2026-05-07 21:21 41.28227 -93.90744 32893 ft 401 kts 265°
2026-05-07 21:22 41.27387 -93.98094 32893 ft 403 kts 264°
2026-05-07 21:22 41.26543 -94.05457 32894 ft 403 kts 264°
2026-05-07 21:23 41.25698 -94.12825 32889 ft 403 kts 264°
2026-05-07 21:23 41.24847 -94.20193 32862 ft 404 kts 264°
2026-05-07 21:24 41.23981 -94.27593 32892 ft 406 kts 264°
2026-05-07 21:24 41.23103 -94.35018 32892 ft 407 kts 264°
2026-05-07 21:25 41.22224 -94.42449 32892 ft 407 kts 264°
2026-05-07 21:25 41.21369 -94.49685 32890 ft 407 kts 264°
2026-05-07 21:26 41.20490 -94.57114 32890 ft 407 kts 264°
2026-05-07 21:26 41.19601 -94.64558 32887 ft 409 kts 264°
2026-05-07 21:27 41.18702 -94.72021 32879 ft 409 kts 263°
2026-05-07 21:27 41.17798 -94.79484 32873 ft 409 kts 263°
2026-05-07 21:28 41.16883 -94.86940 32873 ft 410 kts 263°
2026-05-07 21:28 41.15964 -94.94404 32871 ft 409 kts 263°
2026-05-07 21:29 41.15046 -95.01870 32862 ft 411 kts 263°
2026-05-07 21:29 41.14123 -95.09349 32856 ft 411 kts 263°
2026-05-07 21:30 41.13190 -95.16828 32854 ft 411 kts 263°
2026-05-07 21:30 41.12250 -95.24304 32848 ft 411 kts 263°
2026-05-07 21:31 41.11306 -95.31778 32853 ft 411 kts 263°
2026-05-07 21:31 41.10379 -95.39126 32854 ft 411 kts 263°
2026-05-07 21:32 41.09428 -95.46588 32858 ft 411 kts 263°
2026-05-07 21:32 41.08473 -95.54045 32866 ft 411 kts 263°
2026-05-07 21:33 41.07512 -95.61519 32867 ft 411 kts 263°
2026-05-07 21:33 41.06549 -95.68925 32871 ft 411 kts 263°
2026-05-07 21:34 41.05581 -95.76374 32870 ft 410 kts 263°
2026-05-07 21:34 41.04772 -95.82555 32868 ft 409 kts 263°
2026-05-07 21:35 41.04285 -95.86274 33044 ft 410 kts 263°
2026-05-07 21:35 41.03800 -95.89985 33367 ft 409 kts 263°
2026-05-07 21:35 41.03313 -95.93694 33702 ft 408 kts 263°
2026-05-07 21:35 41.02826 -95.97394 33856 ft 408 kts 263°
2026-05-07 21:36 41.01851 -96.04763 33877 ft 405 kts 262°
2026-05-07 21:36 41.00868 -96.12103 33878 ft 403 kts 262°
2026-05-07 21:37 40.99883 -96.19394 33877 ft 402 kts 262°
2026-05-07 21:37 40.98898 -96.26678 33877 ft 402 kts 262°
2026-05-07 21:38 40.97917 -96.33956 33872 ft 402 kts 262°
2026-05-07 21:38 40.96936 -96.41234 33876 ft 402 kts 262°
2026-05-07 21:39 40.95943 -96.48507 33871 ft 401 kts 262°
2026-05-07 21:39 40.94941 -96.55758 33887 ft 401 kts 262°
2026-05-07 21:40 40.93936 -96.62994 33889 ft 399 kts 262°
2026-05-07 21:40 40.92934 -96.70180 33919 ft 395 kts 262°
2026-05-07 21:41 40.91992 -96.77290 33920 ft 392 kts 264°
2026-05-07 21:41 40.91321 -96.84439 33906 ft 390 kts 265°
2026-05-07 21:42 40.90729 -96.91562 33901 ft 390 kts 265°
2026-05-07 21:42 40.90088 -96.98637 33896 ft 390 kts 265°
2026-05-07 21:43 40.89392 -97.05799 33895 ft 391 kts 264°
2026-05-07 21:43 40.88694 -97.12914 33891 ft 390 kts 264°
2026-05-07 21:44 40.88005 -97.19974 33890 ft 390 kts 264°
2026-05-07 21:44 40.87309 -97.27094 33888 ft 390 kts 264°
2026-05-07 21:45 40.86609 -97.34204 33890 ft 390 kts 264°
2026-05-07 21:45 40.85906 -97.41314 33888 ft 390 kts 264°
2026-05-07 21:46 40.85194 -97.48421 33887 ft 390 kts 264°
2026-05-07 21:46 40.84479 -97.55528 33894 ft 390 kts 264°
2026-05-07 21:47 40.83760 -97.62636 33880 ft 390 kts 264°
2026-05-07 21:47 40.83041 -97.69732 33892 ft 390 kts 264°
2026-05-07 21:48 40.82317 -97.76827 33893 ft 390 kts 264°
2026-05-07 21:48 40.81589 -97.83913 33903 ft 390 kts 264°
2026-05-07 21:49 40.80852 -97.90996 33896 ft 390 kts 264°
2026-05-07 21:49 40.80112 -97.98084 33895 ft 390 kts 264°
2026-05-07 21:50 40.79376 -98.05146 33885 ft 391 kts 264°
2026-05-07 21:50 40.78622 -98.12251 33891 ft 391 kts 264°
2026-05-07 21:51 40.77868 -98.19309 33893 ft 391 kts 264°
2026-05-07 21:51 40.77108 -98.26419 33896 ft 391 kts 264°
2026-05-07 21:52 40.76336 -98.33579 33904 ft 392 kts 264°
2026-05-07 21:52 40.75571 -98.40632 33894 ft 391 kts 264°
2026-05-07 21:53 40.74798 -98.47722 33891 ft 390 kts 264°
2026-05-07 21:53 40.74027 -98.54801 33894 ft 390 kts 264°
2026-05-07 21:54 40.73248 -98.61876 33903 ft 390 kts 264°
2026-05-07 21:54 40.72473 -98.68943 33906 ft 389 kts 264°
2026-05-07 21:55 40.71689 -98.76010 33895 ft 389 kts 263°
2026-05-07 21:55 40.70902 -98.83068 33901 ft 389 kts 263°
2026-05-07 21:56 40.70100 -98.90131 33903 ft 390 kts 263°
2026-05-07 21:56 40.69302 -98.97185 33904 ft 389 kts 263°
2026-05-07 21:57 40.68501 -99.04249 33911 ft 390 kts 263°
2026-05-07 21:57 40.67688 -99.11309 33898 ft 390 kts 263°
2026-05-07 21:58 40.66872 -99.18380 33889 ft 391 kts 263°
2026-05-07 21:58 40.66046 -99.25470 33885 ft 392 kts 263°
2026-05-07 21:59 40.65219 -99.32564 33877 ft 392 kts 263°
2026-05-07 21:59 40.64383 -99.39660 33872 ft 392 kts 263°
2026-05-07 22:00 40.63548 -99.46760 33852 ft 392 kts 263°
2026-05-07 22:00 40.62713 -99.53871 33854 ft 394 kts 263°
2026-05-07 22:01 40.61875 -99.60964 33858 ft 396 kts 263°
2026-05-07 22:01 40.61016 -99.68121 33862 ft 397 kts 263°
2026-05-07 22:02 40.60152 -99.75291 33864 ft 397 kts 263°
2026-05-07 22:02 40.59284 -99.82465 33868 ft 397 kts 263°
2026-05-07 22:03 40.58407 -99.89646 33857 ft 398 kts 263°
2026-05-07 22:03 40.57529 -99.96847 33863 ft 399 kts 263°
2026-05-07 22:04 40.56643 -100.04049 33865 ft 399 kts 263°
2026-05-07 22:04 40.55752 -100.11257 33867 ft 399 kts 263°
2026-05-07 22:05 40.54864 -100.18469 33871 ft 400 kts 263°
2026-05-07 22:05 40.53967 -100.25681 33854 ft 400 kts 263°
2026-05-07 22:06 40.53052 -100.32911 33856 ft 401 kts 263°
2026-05-07 22:06 40.52136 -100.40145 33865 ft 402 kts 263°
2026-05-07 22:07 40.51220 -100.47392 33877 ft 402 kts 263°
2026-05-07 22:07 40.50296 -100.54637 33881 ft 402 kts 263°
2026-05-07 22:08 40.49369 -100.61884 33863 ft 403 kts 263°
2026-05-07 22:08 40.48427 -100.69158 33866 ft 404 kts 263°
2026-05-07 22:09 40.47489 -100.76391 33873 ft 405 kts 263°
2026-05-07 22:09 40.46547 -100.83682 33873 ft 405 kts 263°
2026-05-07 22:10 40.45596 -100.90980 33883 ft 405 kts 263°
2026-05-07 22:10 40.44622 -100.98271 33888 ft 406 kts 263°
2026-05-07 22:11 40.43632 -101.05570 33897 ft 405 kts 263°
2026-05-07 22:11 40.42641 -101.12855 33903 ft 406 kts 263°
2026-05-07 22:12 40.41647 -101.20148 33906 ft 406 kts 263°
2026-05-07 22:12 40.40649 -101.27442 33912 ft 406 kts 263°
2026-05-07 22:13 40.39648 -101.34739 33895 ft 407 kts 263°
2026-05-07 22:13 40.38634 -101.42036 33902 ft 406 kts 263°
2026-05-07 22:14 40.37618 -101.49333 33908 ft 407 kts 263°
2026-05-07 22:14 40.36600 -101.56645 33914 ft 408 kts 263°
2026-05-07 22:15 40.35571 -101.63956 33917 ft 408 kts 263°
2026-05-07 22:15 40.34540 -101.71264 33905 ft 408 kts 264°
2026-05-07 22:16 40.33503 -101.78584 33912 ft 408 kts 264°
2026-05-07 22:16 40.32462 -101.85903 33913 ft 409 kts 264°
2026-05-07 22:17 40.31417 -101.93230 33918 ft 409 kts 264°
2026-05-07 22:17 40.30365 -102.00555 33914 ft 409 kts 264°
2026-05-07 22:18 40.28777 -102.11540 33891 ft 409 kts 264°
2026-05-07 22:19 40.27724 -102.18803 33900 ft 409 kts 264°
2026-05-07 22:19 40.26660 -102.26115 33902 ft 409 kts 264°
2026-05-07 22:20 40.25584 -102.33429 33907 ft 409 kts 264°
2026-05-07 22:20 40.24501 -102.40750 33907 ft 409 kts 264°
2026-05-07 22:21 40.23417 -102.48057 33898 ft 409 kts 265°
2026-05-07 22:21 40.22333 -102.55349 33897 ft 408 kts 265°
2026-05-07 22:22 40.21243 -102.62631 33907 ft 408 kts 265°
2026-05-07 22:22 40.20154 -102.69906 33920 ft 407 kts 265°
2026-05-07 22:23 40.19064 -102.77174 33903 ft 407 kts 265°
2026-05-07 22:23 40.18149 -102.83211 33912 ft 407 kts 265°
2026-05-07 22:24 40.17042 -102.90474 33919 ft 407 kts 265°
2026-05-07 22:24 40.15936 -102.97731 33928 ft 407 kts 265°
2026-05-07 22:25 40.14823 -103.04980 33928 ft 407 kts 265°
2026-05-07 22:25 40.13703 -103.12232 33927 ft 407 kts 265°
2026-05-07 22:26 40.12584 -103.19479 33955 ft 407 kts 265°
2026-05-07 22:26 40.11458 -103.26725 33964 ft 407 kts 265°
2026-05-07 22:27 40.10330 -103.33978 33965 ft 408 kts 265°
2026-05-07 22:27 40.09189 -103.41231 33956 ft 407 kts 264°
2026-05-07 22:28 40.08047 -103.48480 33947 ft 408 kts 265°
2026-05-07 22:28 40.06905 -103.55730 33881 ft 408 kts 265°
2026-05-07 22:29 40.05754 -103.62983 33893 ft 409 kts 264°
2026-05-07 22:29 40.04593 -103.70254 33888 ft 410 kts 264°
2026-05-07 22:30 40.03424 -103.77534 33899 ft 410 kts 264°
2026-05-07 22:30 40.02256 -103.84813 33897 ft 410 kts 264°
2026-05-07 22:31 40.01087 -103.92104 33866 ft 410 kts 264°
2026-05-07 22:31 39.99903 -103.99396 33874 ft 411 kts 264°
2026-05-07 22:32 39.98710 -104.06694 33881 ft 412 kts 264°
2026-05-07 22:32 39.97512 -104.13997 33889 ft 412 kts 264°
2026-05-07 22:33 39.96318 -104.21252 33920 ft 412 kts 264°
2026-05-07 22:33 39.95115 -104.28557 33927 ft 413 kts 264°
2026-05-07 22:34 39.93905 -104.35877 33957 ft 413 kts 264°
2026-05-07 22:34 39.92689 -104.43205 33999 ft 414 kts 264°
2026-05-07 22:35 39.91475 -104.50525 34033 ft 414 kts 264°
2026-05-07 22:35 39.90242 -104.57864 34044 ft 415 kts 264°
2026-05-07 22:36 39.88989 -104.65187 34037 ft 415 kts 263°
2026-05-07 22:36 39.87608 -104.72499 34032 ft 416 kts 262°
2026-05-07 22:37 39.86176 -104.79800 34033 ft 416 kts 262°
2026-05-07 22:37 39.84755 -104.87098 34004 ft 416 kts 262°
2026-05-07 22:38 39.83355 -104.94365 33951 ft 415 kts 262°
2026-05-07 22:38 39.81956 -105.01647 34018 ft 415 kts 262°
2026-05-07 22:39 39.80566 -105.08857 34032 ft 415 kts 262°
2026-05-07 22:39 39.79146 -105.16153 34034 ft 415 kts 262°
2026-05-07 22:40 39.77738 -105.23379 34035 ft 415 kts 262°
2026-05-07 22:40 39.76315 -105.30641 33995 ft 414 kts 261°
2026-05-07 22:41 39.74887 -105.37899 34016 ft 415 kts 261°
2026-05-07 22:41 39.73455 -105.45154 34018 ft 415 kts 261°
2026-05-07 22:42 39.72022 -105.52415 34058 ft 415 kts 261°
2026-05-07 22:42 39.70583 -105.59672 34059 ft 415 kts 261°
2026-05-07 22:43 39.69139 -105.66930 34064 ft 417 kts 262°
2026-05-07 22:43 39.67669 -105.74267 34068 ft 422 kts 262°
2026-05-07 22:44 39.66181 -105.81660 34095 ft 423 kts 262°
2026-05-07 22:44 39.64691 -105.89036 34094 ft 423 kts 262°
2026-05-07 22:45 39.63202 -105.96414 34098 ft 423 kts 261°
2026-05-07 22:45 39.61711 -106.03796 34105 ft 423 kts 262°
2026-05-07 22:46 39.60217 -106.11150 34106 ft 423 kts 261°
2026-05-07 22:46 39.58705 -106.18525 34116 ft 423 kts 261°
2026-05-07 22:47 39.57196 -106.25892 34112 ft 423 kts 261°
2026-05-07 22:47 39.55690 -106.33204 34113 ft 423 kts 261°
2026-05-07 22:48 39.54170 -106.40564 34090 ft 423 kts 261°
2026-05-07 22:48 39.52645 -106.47937 34091 ft 423 kts 261°
2026-05-07 22:49 39.51114 -106.55286 34092 ft 424 kts 261°
2026-05-07 22:49 39.49580 -106.62654 34090 ft 424 kts 261°
2026-05-07 22:50 39.48041 -106.69984 34067 ft 425 kts 261°
2026-05-07 22:50 39.46485 -106.77357 34051 ft 425 kts 261°
2026-05-07 22:51 39.44928 -106.84741 34057 ft 426 kts 261°
2026-05-07 22:51 39.43343 -106.92055 34098 ft 427 kts 260°
2026-05-07 22:52 39.41543 -106.99389 34087 ft 428 kts 258°
2026-05-07 22:52 39.39657 -107.06693 34050 ft 429 kts 258°
2026-05-07 22:53 39.37787 -107.14025 34043 ft 430 kts 258°
2026-05-07 22:53 39.35939 -107.21381 34034 ft 431 kts 258°
2026-05-07 22:54 39.34088 -107.28744 34031 ft 431 kts 258°
2026-05-07 22:54 39.32226 -107.36108 34040 ft 432 kts 258°
2026-05-07 22:55 39.30350 -107.43475 34025 ft 432 kts 258°
2026-05-07 22:55 39.28473 -107.50848 34043 ft 432 kts 258°
2026-05-07 22:56 39.26591 -107.58217 34051 ft 433 kts 258°
2026-05-07 22:56 39.24696 -107.65594 34065 ft 433 kts 258°
2026-05-07 22:57 39.22802 -107.72965 34063 ft 433 kts 258°
2026-05-07 22:57 39.20901 -107.80341 34043 ft 434 kts 258°
2026-05-07 22:58 39.19004 -107.87684 34052 ft 434 kts 258°
2026-05-07 22:58 39.17095 -107.95060 34048 ft 434 kts 258°
2026-05-07 22:59 39.15171 -108.02437 34037 ft 434 kts 258°
2026-05-07 22:59 39.13249 -108.09811 34039 ft 434 kts 257°
2026-05-07 23:00 39.11319 -108.17181 34033 ft 434 kts 257°
2026-05-07 23:00 39.09380 -108.24549 34042 ft 434 kts 257°
2026-05-07 23:01 39.07457 -108.31856 34055 ft 434 kts 258°
2026-05-07 23:01 39.05520 -108.39214 34072 ft 435 kts 257°
2026-05-07 23:02 39.03572 -108.46574 34048 ft 435 kts 257°
2026-05-07 23:02 39.01616 -108.53938 34058 ft 435 kts 257°
2026-05-07 23:03 38.99653 -108.61284 34051 ft 435 kts 257°
2026-05-07 23:03 38.97685 -108.68644 34039 ft 435 kts 257°
2026-05-07 23:04 38.95721 -108.75992 34011 ft 435 kts 257°
2026-05-07 23:04 38.93749 -108.83348 33997 ft 435 kts 257°
2026-05-07 23:05 38.91768 -108.90707 33994 ft 440 kts 257°
2026-05-07 23:05 38.89749 -108.98180 34036 ft 443 kts 257°
2026-05-07 23:06 38.87722 -109.05646 34048 ft 442 kts 257°
2026-05-07 23:06 38.85704 -109.13074 33995 ft 440 kts 256°
2026-05-07 23:07 38.83682 -109.20480 33987 ft 440 kts 256°
2026-05-07 23:07 38.81659 -109.27898 33978 ft 441 kts 256°
2026-05-07 23:08 38.79622 -109.35315 33981 ft 442 kts 256°
2026-05-07 23:08 38.77573 -109.42741 33975 ft 442 kts 256°
2026-05-07 23:09 38.75527 -109.50171 33963 ft 442 kts 256°
2026-05-07 23:09 38.73474 -109.57626 34230 ft 445 kts 256°
2026-05-07 23:09 38.72437 -109.61359 34475 ft 445 kts 256°
2026-05-07 23:10 38.71397 -109.65095 34736 ft 445 kts 256°
2026-05-07 23:10 38.70363 -109.68824 35055 ft 445 kts 256°
2026-05-07 23:10 38.69677 -109.71292 35230 ft 444 kts 256°
2026-05-07 23:10 38.68640 -109.75016 35498 ft 444 kts 256°
2026-05-07 23:11 38.67602 -109.78736 35771 ft 444 kts 256°
2026-05-07 23:11 38.66563 -109.82452 35919 ft 444 kts 256°
2026-05-07 23:11 38.65521 -109.86174 35963 ft 445 kts 256°
2026-05-07 23:12 38.63428 -109.93612 35955 ft 444 kts 256°
2026-05-07 23:12 38.61338 -110.01041 35954 ft 444 kts 256°
2026-05-07 23:13 38.59246 -110.08464 35954 ft 444 kts 256°
2026-05-07 23:13 38.57157 -110.15886 35944 ft 444 kts 256°
2026-05-07 23:14 38.55056 -110.23307 35952 ft 445 kts 255°
2026-05-07 23:14 38.52937 -110.30731 35953 ft 445 kts 255°
2026-05-07 23:15 38.50814 -110.38158 35949 ft 445 kts 255°
2026-05-07 23:15 38.48693 -110.45576 35953 ft 445 kts 255°
2026-05-07 23:16 38.46588 -110.52952 35933 ft 446 kts 255°
2026-05-07 23:16 38.44457 -110.60386 35937 ft 447 kts 255°
2026-05-07 23:16 38.43371 -110.64150 36043 ft 447 kts 255°
2026-05-07 23:17 38.42260 -110.67857 36050 ft 449 kts 251°
2026-05-07 23:17 38.38908 -110.74613 36078 ft 460 kts 237°
2026-05-07 23:18 38.34991 -110.81057 36032 ft 460 kts 236°
2026-05-07 23:18 38.31081 -110.87516 36005 ft 461 kts 237°
2026-05-07 23:19 38.27157 -110.93996 35980 ft 462 kts 237°
2026-05-07 23:19 38.23225 -111.00468 35968 ft 463 kts 237°
2026-05-07 23:20 38.19280 -111.06952 35969 ft 463 kts 237°
2026-05-07 23:20 38.15337 -111.13425 35969 ft 463 kts 237°
2026-05-07 23:21 38.11386 -111.19897 35977 ft 464 kts 236°
2026-05-07 23:21 38.07425 -111.26367 35979 ft 464 kts 236°
2026-05-07 23:22 38.03456 -111.32822 35978 ft 464 kts 236°
2026-05-07 23:22 37.99484 -111.39280 35984 ft 464 kts 236°
2026-05-07 23:23 37.95541 -111.45695 36000 ft 465 kts 236°
2026-05-07 23:23 37.91559 -111.52149 35994 ft 465 kts 235°
2026-05-07 23:24 37.87572 -111.58592 36004 ft 465 kts 235°
2026-05-07 23:24 37.83583 -111.65019 36006 ft 465 kts 235°
2026-05-07 23:25 37.79590 -111.71462 36010 ft 465 kts 236°
2026-05-07 23:25 37.75598 -111.77889 36047 ft 465 kts 235°
2026-05-07 23:26 37.71593 -111.84310 36077 ft 465 kts 234°
2026-05-07 23:26 37.67583 -111.90733 36119 ft 466 kts 234°
2026-05-07 23:27 37.61554 -112.00358 36160 ft 467 kts 234°
2026-05-07 23:27 37.57518 -112.06781 36164 ft 467 kts 234°
2026-05-07 23:28 37.53496 -112.13208 36136 ft 466 kts 237°
2026-05-07 23:28 37.49945 -112.20016 36105 ft 465 kts 240°
2026-05-07 23:29 37.46416 -112.26841 36064 ft 465 kts 239°
2026-05-07 23:29 37.42879 -112.33657 36020 ft 465 kts 239°
2026-05-07 23:30 37.39333 -112.40471 35984 ft 465 kts 239°
2026-05-07 23:30 37.35812 -112.47234 35981 ft 466 kts 239°
2026-05-07 23:31 37.32256 -112.54050 35973 ft 467 kts 239°
2026-05-07 23:31 37.28682 -112.60872 35974 ft 468 kts 239°
2026-05-07 23:32 37.25108 -112.67696 35976 ft 468 kts 239°
2026-05-07 23:32 37.21528 -112.74518 35983 ft 469 kts 239°
2026-05-07 23:33 37.17939 -112.81354 36016 ft 469 kts 240°
2026-05-07 23:33 37.14339 -112.88181 36042 ft 470 kts 240°
2026-05-07 23:34 37.10733 -112.95013 36107 ft 470 kts 239°
2026-05-07 23:34 37.07110 -113.01849 36126 ft 471 kts 239°
2026-05-07 23:35 37.03478 -113.08674 36129 ft 471 kts 239°
2026-05-07 23:35 36.99850 -113.15506 36104 ft 472 kts 239°
2026-05-07 23:36 36.96220 -113.22341 36070 ft 471 kts 239°
2026-05-07 23:36 36.92585 -113.29165 36031 ft 472 kts 239°
2026-05-07 23:37 36.88932 -113.35986 35506 ft 474 kts 239°
2026-05-07 23:37 36.87081 -113.39438 34498 ft 482 kts 239°
2026-05-07 23:37 36.85204 -113.42935 33562 ft 486 kts 239°
2026-05-07 23:38 36.83312 -113.46454 32652 ft 489 kts 239°
2026-05-07 23:38 36.81415 -113.49983 31730 ft 491 kts 239°
2026-05-07 23:38 36.79510 -113.53535 30799 ft 494 kts 239°
2026-05-07 23:38 36.77600 -113.57108 29842 ft 496 kts 239°
2026-05-07 23:39 36.75675 -113.60704 28736 ft 499 kts 239°
2026-05-07 23:39 36.73746 -113.64301 27628 ft 501 kts 239°
2026-05-07 23:39 36.71804 -113.67914 26531 ft 502 kts 239°
2026-05-07 23:39 36.69851 -113.71536 25412 ft 504 kts 238°
2026-05-07 23:40 36.67888 -113.75169 24274 ft 506 kts 238°
2026-05-07 23:40 36.65921 -113.78805 23369 ft 504 kts 238°
2026-05-07 23:40 36.63974 -113.82401 22586 ft 496 kts 238°
2026-05-07 23:40 36.62056 -113.85939 21846 ft 490 kts 238°
2026-05-07 23:41 36.60166 -113.89426 21068 ft 483 kts 238°
2026-05-07 23:41 36.58287 -113.92860 20334 ft 477 kts 237°
2026-05-07 23:41 36.56367 -113.96165 19274 ft 466 kts 236°
2026-05-07 23:41 36.54412 -113.99346 18163 ft 459 kts 234°
2026-05-07 23:42 36.52453 -114.02421 17355 ft 444 kts 233°
2026-05-07 23:42 36.50579 -114.05322 17214 ft 423 kts 234°
2026-05-07 23:42 36.48799 -114.08088 17065 ft 395 kts 234°
2026-05-07 23:42 36.47147 -114.10685 16935 ft 372 kts 234°
2026-05-07 23:43 36.45606 -114.13141 16796 ft 351 kts 235°
2026-05-07 23:43 36.44144 -114.15495 16384 ft 339 kts 235°
2026-05-07 23:43 36.42722 -114.17796 15996 ft 333 kts 235°
2026-05-07 23:43 36.41318 -114.20069 15749 ft 330 kts 235°
2026-05-07 23:44 36.39919 -114.22326 15509 ft 329 kts 235°
2026-05-07 23:44 36.38523 -114.24561 15294 ft 328 kts 234°
2026-05-07 23:44 36.37117 -114.26782 15039 ft 327 kts 234°
2026-05-07 23:44 36.35709 -114.28987 14766 ft 326 kts 234°
2026-05-07 23:45 36.34301 -114.31190 14387 ft 325 kts 234°
2026-05-07 23:45 36.32900 -114.33381 13988 ft 325 kts 234°
2026-05-07 23:45 36.31503 -114.35568 13566 ft 325 kts 234°
2026-05-07 23:45 36.30117 -114.37734 13225 ft 322 kts 233°
2026-05-07 23:46 36.28702 -114.39940 12803 ft 321 kts 233°
2026-05-07 23:46 36.27322 -114.42091 12420 ft 319 kts 234°
2026-05-07 23:46 36.25965 -114.44202 12126 ft 315 kts 233°
2026-05-07 23:46 36.24585 -114.46347 11729 ft 314 kts 233°
2026-05-07 23:47 36.23223 -114.48449 11359 ft 312 kts 233°
2026-05-07 23:47 36.21866 -114.50526 11003 ft 309 kts 234°
2026-05-07 23:47 36.20538 -114.52557 10639 ft 307 kts 234°
2026-05-07 23:47 36.19181 -114.54637 10263 ft 305 kts 234°
2026-05-07 23:48 36.17869 -114.56645 9922 ft 303 kts 234°
2026-05-07 23:48 36.16545 -114.58666 9547 ft 302 kts 234°
2026-05-07 23:48 36.15230 -114.60676 9182 ft 299 kts 234°
2026-05-07 23:48 36.13928 -114.62671 8830 ft 297 kts 233°
2026-05-07 23:49 36.12635 -114.64651 8518 ft 294 kts 233°
2026-05-07 23:49 36.11363 -114.66589 8338 ft 285 kts 233°
2026-05-07 23:49 36.10137 -114.68452 8213 ft 274 kts 233°
2026-05-07 23:49 36.08959 -114.70241 8100 ft 263 kts 233°
2026-05-07 23:50 36.07912 -114.72017 7994 ft 249 kts 245°
2026-05-07 23:50 36.07373 -114.73995 7767 ft 240 kts 265°
2026-05-07 23:50 36.07318 -114.76023 7491 ft 236 kts 272°
2026-05-07 23:50 36.07328 -114.78048 7210 ft 234 kts 272°
2026-05-07 23:51 36.07335 -114.80054 6927 ft 233 kts 271°
2026-05-07 23:51 36.07339 -114.82055 6642 ft 232 kts 271°
2026-05-07 23:51 36.07343 -114.84040 6379 ft 229 kts 271°
2026-05-07 23:51 36.07346 -114.86007 6061 ft 227 kts 271°
2026-05-07 23:52 36.07350 -114.87932 5778 ft 218 kts 271°
2026-05-07 23:52 36.07353 -114.89718 5503 ft 200 kts 271°
2026-05-07 23:52 36.07354 -114.91412 5262 ft 196 kts 271°
2026-05-07 23:52 36.07357 -114.93093 4999 ft 196 kts 271°
2026-05-07 23:53 36.07360 -114.94769 4752 ft 194 kts 270°
2026-05-07 23:53 36.07361 -114.96441 4534 ft 194 kts 271°
2026-05-07 23:53 36.07362 -114.98114 4289 ft 195 kts 270°
2026-05-07 23:53 36.07363 -114.99795 4044 ft 196 kts 270°
2026-05-07 23:54 36.07365 -115.01473 3812 ft 195 kts 270°
2026-05-07 23:54 36.07366 -115.03131 3571 ft 194 kts 269°
2026-05-07 23:54 36.07366 -115.04749 3340 ft 179 kts 269°
2026-05-07 23:54 36.07372 -115.06204 3126 ft 162 kts 271°
2026-05-07 23:55 36.07372 -115.07553 2892 ft 156 kts 270°
2026-05-07 23:55 36.07356 -115.08882 2682 ft 154 kts 270°
2026-05-07 23:55 36.07361 -115.10206 2515 ft 153 kts 270°
2026-05-07 23:55 36.07359 -115.11516 2285 ft 152 kts 270°
2026-05-07 23:56 36.07361 -115.12825 2089 ft 151 kts 270°
2026-05-07 23:56 36.07363 -115.13987 2101 ft 112 kts 270°
2026-05-07 23:56 36.07366 -115.14611 2120 ft 37 kts 271°
2026-05-07 23:56 36.07395 -115.14865 2127 ft 26 kts 290°
2026-05-07 23:57 36.07466 -115.15041 2128 ft 17 kts 301°
2026-05-07 23:57 36.07517 -115.15113 2129 ft 3 kts 322°
2026-05-07 23:57 36.07525 -115.15120 2129 ft 1 kts 323°
2026-05-07 23:57 36.07526 -115.15120 2129 ft 0 kts 324°
2026-05-07 23:59 36.07527 -115.15121 2129 ft 2 kts 324°
2026-05-07 23:59 36.07596 -115.15170 2131 ft 21 kts 335°
2026-05-07 23:59 36.07726 -115.15243 2135 ft 17 kts 336°
2026-05-08 00:00 36.07798 -115.15224 2134 ft 13 kts 63°
2026-05-08 00:00 36.07801 -115.15047 2128 ft 27 kts 94°
2026-05-08 00:00 36.07787 -115.14823 2120 ft 25 kts 95°
2026-05-08 00:00 36.07770 -115.14608 2110 ft 24 kts 92°
2026-05-08 00:01 36.07761 -115.14394 2104 ft 26 kts 95°
2026-05-08 00:01 36.07756 -115.14196 2097 ft 16 kts 72°
2026-05-08 00:01 36.07862 -115.14155 2094 ft 16 kts
2026-05-08 00:01 36.07940 -115.14104 2094 ft 11 kts 33°
2026-05-08 00:02 36.07977 -115.14071 2093 ft 6 kts 54°
2026-05-08 00:02 36.07984 -115.14060 2092 ft 1 kts 55°
2026-05-08 00:02 36.07988 -115.14051 2092 ft 1 kts 57°
2026-05-08 00:02 36.07990 -115.14047 2092 ft 0 kts 58°
2026-05-08 00:03 36.07993 -115.14042 2092 ft 1 kts 58°
2026-05-08 00:03 36.07995 -115.14037 2092 ft 1 kts 59°
2026-05-08 00:03 36.07996 -115.14035 2092 ft 0 kts 59°